| time (UTC) | temp C | wind direction | speed KPH | gust KPH | rain 1hr cm | rain 24hr cm | rain mn cm | humidity % | barometer mb |
| 20260507014553 | 12 | 340 | 1.6 | 12.9 | 0.00 | 0.00 | 0.00 | 87 | 1022.3 |
| 20260507013041 | 12 | 346 | 0.0 | 11.3 | 0.00 | 0.00 | 0.00 | 87 | 1022.4 |
| 20260507011541 | 12 | 0 | 4.8 | 14.5 | 0.00 | 0.00 | 0.00 | 86 | 1022.4 |
| 20260507010042 | 12 | 298 | 6.4 | 12.9 | 0.00 | 0.00 | 0.00 | 86 | 1022.5 |
| 20260507004541 | 12 | 292 | 4.8 | 12.9 | 0.00 | 0.00 | 0.00 | 87 | 1022.5 |
| 20260507003035 | 12 | 282 | 3.2 | 12.9 | 0.00 | 0.00 | 0.00 | 87 | 1022.6 |
| 20260507001543 | 13 | 286 | 3.2 | 11.3 | 0.00 | 0.00 | 0.00 | 86 | 1022.6 |
| 20260507000044 | 13 | 355 | 4.8 | 12.9 | 0.00 | 0.00 | 0.00 | 85 | 1022.6 |
| 20260506234541 | 13 | 299 | 3.2 | 12.9 | 0.00 | 0.00 | 0.00 | 85 | 1022.6 |
| 20260506233040 | 13 | 315 | 4.8 | 14.5 | 0.00 | 0.00 | 0.00 | 85 | 1022.6 |
| 20260506231537 | 13 | 329 | 3.2 | 12.9 | 0.00 | 0.00 | 0.00 | 84 | 1022.7 |
| 20260506230036 | 13 | 315 | 3.2 | 11.3 | 0.00 | 0.00 | 0.00 | 83 | 1022.8 |
| 20260506224543 | 13 | 275 | 1.6 | 8.0 | 0.00 | 0.00 | 0.00 | 83 | 1022.9 |
| 20260506223041 | 13 | 313 | 1.6 | 9.7 | 0.00 | 0.00 | 0.00 | 85 | 1023.0 |
| 20260506221544 | 13 | 259 | 4.8 | 14.5 | 0.00 | 0.00 | 0.00 | 84 | 1023.2 |
| 20260506220042 | 13 | 0 | 3.2 | 16.1 | 0.00 | 0.00 | 0.00 | 83 | 1022.9 |
| 20260506214540 | 14 | 276 | 4.8 | 14.5 | 0.00 | 0.00 | 0.00 | 80 | 1022.9 |
| 20260506213036 | 14 | 0 | 1.6 | 11.3 | 0.00 | 0.00 | 0.00 | 79 | 1022.8 |
| 20260506211542 | 15 | 0 | 3.2 | 9.7 | 0.00 | 0.00 | 0.00 | 76 | 1022.9 |
| 20260506210044 | 15 | 226 | 0.0 | 6.4 | 0.00 | 0.00 | 0.00 | 77 | 1022.7 |
| 20260506204541 | 14 | 257 | 1.6 | 6.4 | 0.00 | 0.00 | 0.00 | 77 | 1022.7 |
| 20260506203048 | 14 | 300 | 3.2 | 9.7 | 0.00 | 0.00 | 0.00 | 78 | 1022.6 |
| 20260506201559 | 14 | 289 | 1.6 | 6.4 | 0.00 | 0.00 | 0.00 | 79 | 1022.6 |
| 20260506200040 | 14 | 268 | 1.6 | 9.7 | 0.00 | 0.00 | 0.00 | 77 | 1022.6 |
| 20260506194540 | 14 | 227 | 3.2 | 8.0 | 0.00 | 0.00 | 0.00 | 77 | 1022.6 |
| 20260506193050 | 14 | 0 | 3.2 | 12.9 | 0.00 | 0.00 | 0.00 | 78 | 1022.6 |
| 20260506191543 | 13 | 272 | 3.2 | 11.3 | 0.00 | 0.00 | 0.00 | 78 | 1022.6 |
| 20260506190040 | 13 | 281 | 4.8 | 12.9 | 0.00 | 0.00 | 0.00 | 79 | 1022.6 |
| 20260506184547 | 13 | 259 | 3.2 | 11.3 | 0.00 | 0.00 | 0.00 | 79 | 1022.5 |
| 20260506183042 | 13 | 242 | 1.6 | 9.7 | 0.00 | 0.00 | 0.00 | 80 | 1022.5 |
| 20260506181541 | 13 | 0 | 3.2 | 9.7 | 0.00 | 0.00 | 0.00 | 80 | 1022.3 |
| 20260506180040 | 13 | 272 | 3.2 | 9.7 | 0.00 | 0.00 | 0.00 | 80 | 1022.2 |
| 20260506174541 | 13 | 270 | 1.6 | 9.7 | 0.00 | 0.00 | 0.00 | 80 | 1022.0 |
| 20260506173054 | 13 | 0 | 0.0 | 6.4 | 0.00 | 0.00 | 0.00 | 81 | 1021.9 |
| 20260506171550 | 13 | 209 | 0.0 | 4.8 | 0.00 | 0.00 | 0.00 | 81 | 1021.9 |
| 20260506170045 | 13 | 0 | 0.0 | 4.8 | 0.00 | 0.00 | 0.00 | 82 | 1021.8 |
| 20260506164543 | 12 | 207 | 0.0 | 4.8 | 0.00 | 0.00 | 0.00 | 83 | 1021.6 |
| 20260506163058 | 12 | 153 | 1.6 | 6.4 | 0.00 | 0.00 | 0.00 | 82 | 1021.6 |
| 20260506161544 | 12 | 166 | 0.0 | 6.4 | 0.00 | 0.00 | 0.00 | 83 | 1021.6 |
| 20260506160042 | 12 | 0 | 1.6 | 4.8 | 0.00 | 0.00 | 0.00 | 84 | 1021.6 |
| 20260506154552 | 12 | 0 | 0.0 | 3.2 | 0.00 | 0.00 | 0.00 | 87 | 1021.5 |
| 20260506153042 | 12 | 159 | 1.6 | 6.4 | 0.00 | 0.00 | 0.00 | 88 | 1021.3 |
| 20260506151543 | 12 | 0 | 0.0 | 4.8 | 0.00 | 0.00 | 0.00 | 90 | 1021.3 |
| 20260506150042 | 11 | 191 | 1.6 | 4.8 | 0.00 | 0.00 | 0.00 | 91 | 1021.0 |
| 20260506144540 | 11 | 0 | 0.0 | 4.8 | 0.00 | 0.00 | 0.00 | 91 | 1020.8 |
| 20260506143041 | 11 | 0 | 1.6 | 8.0 | 0.00 | 0.00 | 0.00 | 91 | 1020.8 |
| 20260506141548 | 11 | 0 | 0.0 | 3.2 | 0.00 | 0.00 | 0.00 | 91 | 1021.0 |
| 20260506140053 | 11 | 0 | 0.0 | 3.2 | 0.00 | 0.00 | 0.00 | 91 | 1021.2 |
| 20260506134541 | 11 | 0 | 0.0 | 4.8 | 0.00 | 0.00 | 0.00 | 91 | 1021.0 |
| 20260506133040 | 11 | 0 | 0.0 | 3.2 | 0.00 | 0.00 | 0.00 | 91 | 1021.1 |
| 20260506131541 | 11 | 0 | 0.0 | 4.8 | 0.00 | 0.00 | 0.00 | 91 | 1020.7 |
| 20260506130041 | 11 | 184 | 0.0 | 4.8 | 0.00 | 0.00 | 0.00 | 91 | 1020.6 |
| 20260506124545 | 11 | 0 | 0.0 | 3.2 | 0.00 | 0.00 | 0.00 | 91 | 1020.6 |
| 20260506123043 | 11 | 0 | 0.0 | 3.2 | 0.00 | 0.00 | 0.00 | 91 | 1020.4 |
| 20260506121543 | 11 | 0 | 0.0 | 4.8 | 0.00 | 0.00 | 0.00 | 91 | 1020.4 |
| 20260506120045 | 11 | 0 | 0.0 | 4.8 | 0.00 | 0.00 | 0.00 | 91 | 1020.3 |
| 20260506114550 | 11 | 0 | 0.0 | 3.2 | 0.00 | 0.00 | 0.00 | 90 | 1020.2 |
| 20260506113042 | 11 | 0 | 0.0 | 3.2 | 0.00 | 0.00 | 0.00 | 90 | 1020.0 |
| 20260506111543 | 11 | 0 | 1.6 | 4.8 | 0.00 | 0.00 | 0.00 | 89 | 1020.1 |
| 20260506110041 | 11 | 0 | 0.0 | 3.2 | 0.00 | 0.00 | 0.00 | 89 | 1020.0 |
| 20260506104544 | 12 | 0 | 0.0 | 4.8 | 0.00 | 0.00 | 0.00 | 89 | 1019.9 |
| 20260506103040 | 12 | 271 | 0.0 | 4.8 | 0.00 | 0.00 | 0.00 | 88 | 1019.7 |
| 20260506101537 | 12 | 251 | 0.0 | 4.8 | 0.00 | 0.00 | 0.00 | 88 | 1019.6 |
| 20260506100047 | 12 | 248 | 1.6 | 4.8 | 0.00 | 0.00 | 0.00 | 88 | 1019.5 |
| 20260506094546 | 12 | 254 | 0.0 | 4.8 | 0.00 | 0.00 | 0.00 | 87 | 1019.4 |
| 20260506093102 | 12 | 243 | 0.0 | 6.4 | 0.00 | 0.00 | 0.00 | 87 | 1019.3 |
| 20260506091545 | 12 | 261 | 0.0 | 4.8 | 0.00 | 0.00 | 0.00 | 87 | 1019.1 |
| 20260506090042 | 12 | 271 | 0.0 | 4.8 | 0.00 | 0.00 | 0.00 | 87 | 1019.1 |
| 20260506084536 | 12 | 0 | 0.0 | 4.8 | 0.00 | 0.00 | 0.00 | 87 | 1019.0 |
| 20260506083045 | 12 | 246 | 0.0 | 6.4 | 0.00 | 0.00 | 0.00 | 86 | 1018.9 |
| 20260506081541 | 12 | 270 | 0.0 | 6.4 | 0.00 | 0.00 | 0.00 | 86 | 1018.9 |
| 20260506073042 | 12 | 0 | 0.0 | 1.6 | 0.00 | 0.00 | 0.00 | 86 | 1018.5 |
| 20260506071544 | 12 | 0 | 0.0 | 3.2 | 0.00 | 0.00 | 0.00 | 86 | 1018.4 |
| 20260506061555 | 12 | 138 | 0.0 | 1.6 | 0.00 | 0.00 | 0.00 | 85 | 1018.1 |
| 20260506044542 | 12 | 288 | 1.6 | 6.4 | 0.00 | 0.00 | 0.00 | 84 | 1018.2 |
| 20260506043040 | 12 | 271 | 0.0 | 6.4 | 0.00 | 0.00 | 0.00 | 84 | 1017.9 |
| 20260506041557 | 12 | 0 | 0.0 | 4.8 | 0.00 | 0.00 | 0.00 | 84 | 1017.8 |
| 20260506040051 | 13 | 288 | 1.6 | 11.3 | 0.00 | 0.00 | 0.00 | 83 | 1017.7 |
| 20260506034541 | 13 | 284 | 3.2 | 9.7 | 0.00 | 0.00 | 0.00 | 83 | 1017.7 |
| 20260506033043 | 13 | 289 | 3.2 | 6.4 | 0.00 | 0.00 | 0.00 | 83 | 1017.3 |
| 20260506031543 | 13 | 279 | 1.6 | 8.0 | 0.00 | 0.00 | 0.00 | 82 | 1017.1 |
| 20260506030037 | 13 | 297 | 1.6 | 6.4 | 0.00 | 0.00 | 0.00 | 82 | 1017.1 |
| 20260506024544 | 13 | 276 | 3.2 | 12.9 | 0.00 | 0.00 | 0.00 | 82 | 1017.1 |
| 20260506023051 | 13 | 342 | 3.2 | 11.3 | 0.00 | 0.00 | 0.00 | 82 | 1017.1 |
| 20260506021541 | 13 | 350 | 3.2 | 11.3 | 0.00 | 0.00 | 0.00 | 81 | 1016.9 |
| 20260506020110 | 13 | 343 | 1.6 | 12.9 | 0.00 | 0.00 | 0.00 | 81 | 1017.0 |